Year,Month,Day,Hour,Minute,Value (Times are PST for temperature in C)
2007,10,22,00,00,9.90
2007,10,22,00,01,9.90
2007,10,22,00,02,9.90
2007,10,22,00,03,9.90
2007,10,22,00,04,9.90
2007,10,22,00,05,9.90
2007,10,22,00,06,9.90
2007,10,22,00,07,9.90
2007,10,22,00,08,9.90
2007,10,22,00,09,9.90
2007,10,22,00,10,9.90
2007,10,22,00,11,9.90
2007,10,22,00,12,9.90
2007,10,22,00,13,9.90
2007,10,22,00,14,9.90
2007,10,22,00,15,9.90
2007,10,22,00,16,9.90
2007,10,22,00,17,9.90
2007,10,22,00,18,9.90
2007,10,22,00,19,9.90
2007,10,22,00,20,9.90
2007,10,22,00,21,9.90
2007,10,22,00,22,9.90
2007,10,22,00,23,9.90
2007,10,22,00,24,9.90
2007,10,22,00,25,9.90
2007,10,22,00,26,9.90
2007,10,22,00,27,9.90
2007,10,22,00,28,9.90
2007,10,22,00,29,9.90
2007,10,22,00,30,9.90
2007,10,22,00,31,9.90
2007,10,22,00,32,9.90
2007,10,22,00,33,9.90
2007,10,22,00,34,9.90
2007,10,22,00,35,9.90
2007,10,22,00,36,9.90
2007,10,22,00,37,9.90
2007,10,22,00,38,9.90
2007,10,22,00,39,9.90
2007,10,22,00,40,9.90
2007,10,22,00,41,9.90
2007,10,22,00,42,9.90
2007,10,22,00,43,9.90
2007,10,22,00,44,9.90
2007,10,22,00,45,9.90
2007,10,22,00,46,9.90
2007,10,22,00,47,9.90
2007,10,22,00,48,9.90
2007,10,22,00,49,9.90
2007,10,22,00,50,9.90
2007,10,22,00,51,9.90
2007,10,22,00,52,9.90
2007,10,22,00,53,9.90
2007,10,22,00,54,9.90
2007,10,22,00,55,9.90
2007,10,22,00,56,9.90
2007,10,22,00,57,9.90
2007,10,22,00,58,9.90
2007,10,22,00,59,9.90
2007,10,22,01,00,9.90
2007,10,22,01,01,10.00
2007,10,22,01,02,10.10
2007,10,22,01,03,10.10
2007,10,22,01,04,10.10
2007,10,22,01,05,10.10
2007,10,22,01,06,10.10
2007,10,22,01,07,10.10
2007,10,22,01,08,10.10
2007,10,22,01,09,10.10
2007,10,22,01,10,10.10
2007,10,22,01,11,10.10
2007,10,22,01,12,10.10
2007,10,22,01,13,10.10
2007,10,22,01,14,10.10
2007,10,22,01,15,10.10
2007,10,22,01,16,10.10
2007,10,22,01,17,10.10
2007,10,22,01,18,10.10
2007,10,22,01,19,10.10
2007,10,22,01,20,10.10
2007,10,22,01,21,10.10
2007,10,22,01,22,10.10
2007,10,22,01,23,10.10
2007,10,22,01,24,10.10
2007,10,22,01,25,10.10
2007,10,22,01,26,10.10
2007,10,22,01,27,10.10
2007,10,22,01,28,10.10
2007,10,22,01,29,10.10
2007,10,22,01,30,10.10
2007,10,22,01,31,10.10
2007,10,22,01,32,10.10
2007,10,22,01,33,10.00
2007,10,22,01,34,9.90
2007,10,22,01,35,9.90
2007,10,22,01,36,9.90
2007,10,22,01,37,9.90
2007,10,22,01,38,9.90
2007,10,22,01,39,9.90
2007,10,22,01,40,9.90
2007,10,22,01,41,9.90
2007,10,22,01,42,9.90
2007,10,22,01,43,9.90
2007,10,22,01,44,9.90
2007,10,22,01,45,9.90
2007,10,22,01,46,9.90
2007,10,22,01,47,9.90
2007,10,22,01,48,9.90
2007,10,22,01,49,9.90
2007,10,22,01,50,9.90
2007,10,22,01,51,9.90
2007,10,22,01,52,9.90
2007,10,22,01,53,9.90
2007,10,22,01,54,9.90
2007,10,22,01,55,9.90
2007,10,22,01,56,9.90
2007,10,22,01,57,9.90
2007,10,22,01,58,9.90
2007,10,22,01,59,9.90
2007,10,22,02,00,9.90
2007,10,22,02,01,9.90
2007,10,22,02,02,9.90
2007,10,22,02,03,9.90
2007,10,22,02,04,9.90
2007,10,22,02,05,9.90
2007,10,22,02,06,9.90
2007,10,22,02,07,9.90
2007,10,22,02,08,9.90
2007,10,22,02,09,9.90
2007,10,22,02,10,9.90
2007,10,22,02,11,9.90
2007,10,22,02,12,9.90
2007,10,22,02,13,9.90
2007,10,22,02,14,9.90
2007,10,22,02,15,9.90
2007,10,22,02,16,9.90
2007,10,22,02,17,9.90
2007,10,22,02,18,9.90
2007,10,22,02,19,9.90
2007,10,22,02,20,9.90
2007,10,22,02,21,9.90
2007,10,22,02,22,9.90
2007,10,22,02,23,9.90
2007,10,22,02,24,9.90
2007,10,22,02,25,9.90
2007,10,22,02,26,9.90
2007,10,22,02,27,9.90
2007,10,22,02,28,9.90
2007,10,22,02,29,9.90
2007,10,22,02,30,9.90
2007,10,22,02,31,9.90
2007,10,22,02,32,9.90
2007,10,22,02,33,9.90
2007,10,22,02,34,9.90
2007,10,22,02,35,9.90
2007,10,22,02,36,9.90
2007,10,22,02,37,9.90
2007,10,22,02,38,9.90
2007,10,22,02,39,9.90
2007,10,22,02,40,9.90
2007,10,22,02,41,9.90
2007,10,22,02,42,9.90
2007,10,22,02,43,9.90
2007,10,22,02,44,9.90
2007,10,22,02,45,9.90
2007,10,22,02,46,9.90
2007,10,22,02,47,9.90
2007,10,22,02,48,9.90
2007,10,22,02,49,10.00
2007,10,22,02,50,10.10
2007,10,22,02,51,10.10
2007,10,22,02,52,10.10
2007,10,22,02,53,10.10
2007,10,22,02,54,10.10
2007,10,22,02,55,10.10
2007,10,22,02,56,10.10
2007,10,22,02,57,10.10
2007,10,22,02,58,10.10
2007,10,22,02,59,10.10
2007,10,22,03,00,10.10
2007,10,22,03,01,10.10
2007,10,22,03,02,10.10
2007,10,22,03,03,10.10
2007,10,22,03,04,10.10
2007,10,22,03,05,10.10
2007,10,22,03,06,10.10
2007,10,22,03,07,10.10
2007,10,22,03,08,10.10
2007,10,22,03,09,10.10
2007,10,22,03,10,10.10
2007,10,22,03,11,10.10
2007,10,22,03,12,10.10
2007,10,22,03,13,10.10
2007,10,22,03,14,10.10
2007,10,22,03,15,10.10
2007,10,22,03,16,10.10
2007,10,22,03,17,10.10
2007,10,22,03,18,10.10
2007,10,22,03,19,10.10
2007,10,22,03,20,10.10
2007,10,22,03,21,10.10
2007,10,22,03,22,10.10
2007,10,22,03,23,10.10
2007,10,22,03,24,10.10
2007,10,22,03,25,10.10
2007,10,22,03,26,10.10
2007,10,22,03,27,10.10
2007,10,22,03,28,10.10
2007,10,22,03,29,10.10
2007,10,22,03,30,10.10
2007,10,22,03,31,10.10
2007,10,22,03,32,10.10
2007,10,22,03,33,10.10
2007,10,22,03,34,10.10
2007,10,22,03,35,10.10
2007,10,22,03,36,10.10
2007,10,22,03,37,10.10
2007,10,22,03,38,10.10
2007,10,22,03,39,10.10
2007,10,22,03,40,10.10
2007,10,22,03,41,10.10
2007,10,22,03,42,10.10
2007,10,22,03,43,10.10
2007,10,22,03,44,10.10
2007,10,22,03,45,10.10
2007,10,22,03,46,10.10
2007,10,22,03,47,10.10
2007,10,22,03,48,10.10
2007,10,22,03,49,10.10
2007,10,22,03,50,10.10
2007,10,22,03,51,10.10
2007,10,22,03,52,10.10
2007,10,22,03,53,10.10
2007,10,22,03,54,10.10
2007,10,22,03,55,10.10
2007,10,22,03,56,10.10
2007,10,22,03,57,10.10
2007,10,22,03,58,10.10
2007,10,22,03,59,10.10
2007,10,22,04,00,10.10
2007,10,22,04,01,10.10
2007,10,22,04,02,10.10
2007,10,22,04,03,10.10
2007,10,22,04,04,10.10
2007,10,22,04,05,10.10
2007,10,22,04,06,10.10
2007,10,22,04,07,10.10
2007,10,22,04,08,10.10
2007,10,22,04,09,10.10
2007,10,22,04,10,10.10
2007,10,22,04,11,10.20
2007,10,22,04,12,10.20
2007,10,22,04,13,10.20
2007,10,22,04,14,10.20
2007,10,22,04,15,10.20
2007,10,22,04,16,10.20
2007,10,22,04,17,10.20
2007,10,22,04,18,10.20
2007,10,22,04,19,10.20
2007,10,22,04,20,10.20
2007,10,22,04,21,10.20
2007,10,22,04,22,10.20
2007,10,22,04,23,10.20
2007,10,22,04,24,10.20
2007,10,22,04,25,10.20
2007,10,22,04,26,10.20
2007,10,22,04,27,10.20
2007,10,22,04,28,10.20
2007,10,22,04,29,10.20
2007,10,22,04,30,10.20
2007,10,22,04,31,10.20
2007,10,22,04,32,10.20
2007,10,22,04,33,10.20
2007,10,22,04,34,10.20
2007,10,22,04,35,10.20
2007,10,22,04,36,10.20
2007,10,22,04,37,10.20
2007,10,22,04,38,10.20
2007,10,22,04,39,10.20
2007,10,22,04,40,10.10
2007,10,22,04,41,10.10
2007,10,22,04,42,10.10
2007,10,22,04,43,10.10
2007,10,22,04,44,10.10
2007,10,22,04,45,10.10
2007,10,22,04,46,10.10
2007,10,22,04,47,10.10
2007,10,22,04,48,10.10
2007,10,22,04,49,10.10
2007,10,22,04,50,10.10
2007,10,22,04,51,10.10
2007,10,22,04,52,10.10
2007,10,22,04,53,10.10
2007,10,22,04,54,10.10
2007,10,22,04,55,10.10
2007,10,22,04,56,10.10
2007,10,22,04,57,10.10
2007,10,22,04,58,10.10
2007,10,22,04,59,10.10
2007,10,22,05,00,10.10
2007,10,22,05,01,10.10
2007,10,22,05,02,10.10
2007,10,22,05,03,10.10
2007,10,22,05,04,10.10
2007,10,22,05,05,10.10
2007,10,22,05,06,10.10
2007,10,22,05,07,10.10
2007,10,22,05,08,10.10
2007,10,22,05,09,10.10
2007,10,22,05,10,10.10
2007,10,22,05,11,10.10
2007,10,22,05,12,10.10
2007,10,22,05,13,10.10
2007,10,22,05,14,10.10
2007,10,22,05,15,10.10
2007,10,22,05,16,10.10
2007,10,22,05,17,10.10
2007,10,22,05,18,10.10
2007,10,22,05,19,10.10
2007,10,22,05,52,10.10
2007,10,22,05,53,10.10
2007,10,22,05,54,10.10
2007,10,22,05,55,10.20
2007,10,22,05,56,10.10
2007,10,22,05,57,10.10
2007,10,22,05,58,10.10
2007,10,22,05,59,10.10
2007,10,22,06,00,10.10
2007,10,22,06,01,10.10
2007,10,22,06,02,10.10
2007,10,22,06,03,10.10
2007,10,22,06,04,10.20
2007,10,22,06,05,10.20
2007,10,22,06,06,10.20
2007,10,22,06,07,10.20
2007,10,22,06,08,10.20
2007,10,22,06,09,10.20
2007,10,22,06,10,10.10
2007,10,22,06,11,10.10
2007,10,22,06,12,10.10
2007,10,22,06,13,10.10
2007,10,22,06,14,10.10
2007,10,22,06,15,10.10
2007,10,22,06,16,10.10
2007,10,22,06,17,10.10
2007,10,22,06,18,10.10
2007,10,22,06,19,10.10
2007,10,22,06,20,10.10
2007,10,22,06,21,10.10
2007,10,22,06,22,10.10
2007,10,22,06,23,10.10
2007,10,22,06,24,10.10
2007,10,22,06,25,10.10
2007,10,22,06,26,10.10
2007,10,22,06,27,10.10
2007,10,22,06,28,10.10
2007,10,22,06,29,10.10
2007,10,22,06,30,10.10
2007,10,22,06,31,10.10
2007,10,22,06,32,10.10
2007,10,22,06,33,10.10
2007,10,22,06,34,10.10
2007,10,22,06,35,10.10
2007,10,22,06,36,10.10
2007,10,22,06,37,10.10
2007,10,22,06,38,10.10
2007,10,22,06,39,10.10
2007,10,22,06,40,10.10
2007,10,22,06,41,10.10
2007,10,22,06,42,10.10
2007,10,22,06,43,10.10
2007,10,22,06,44,10.10
2007,10,22,06,45,10.10
2007,10,22,06,46,10.10
2007,10,22,06,47,10.10
2007,10,22,06,48,10.10
2007,10,22,06,49,10.10
2007,10,22,06,50,10.10
2007,10,22,06,51,10.10
2007,10,22,06,52,10.10
2007,10,22,06,53,10.10
2007,10,22,06,54,10.10
2007,10,22,06,55,10.10
2007,10,22,06,56,10.10
2007,10,22,06,57,10.10
2007,10,22,06,58,10.10
2007,10,22,06,59,10.10
2007,10,22,07,00,10.10
2007,10,22,07,01,10.10
2007,10,22,07,02,10.20
2007,10,22,07,03,10.20
2007,10,22,07,04,10.20
2007,10,22,07,05,10.20
2007,10,22,07,06,10.20
2007,10,22,07,07,10.20
2007,10,22,07,08,10.20
2007,10,22,07,09,10.20
2007,10,22,07,10,10.20
2007,10,22,07,11,10.20
2007,10,22,07,12,10.20
2007,10,22,07,13,10.20
2007,10,22,07,14,10.20
2007,10,22,07,15,10.20
2007,10,22,07,16,10.20
2007,10,22,07,17,10.20
2007,10,22,07,18,10.20
2007,10,22,07,19,10.20
2007,10,22,07,20,10.20
2007,10,22,07,21,10.20
2007,10,22,07,22,10.20
2007,10,22,07,23,10.20
2007,10,22,07,24,10.20
2007,10,22,07,25,10.20
2007,10,22,07,26,10.20
2007,10,22,07,27,10.20
2007,10,22,07,28,10.20
2007,10,22,07,29,10.20
2007,10,22,07,30,10.30
2007,10,22,07,31,10.30
2007,10,22,07,32,10.30
2007,10,22,07,33,10.30
2007,10,22,07,34,10.30
2007,10,22,07,35,10.30
2007,10,22,07,36,10.30
2007,10,22,07,37,10.30
2007,10,22,07,38,10.30
2007,10,22,07,39,10.30
2007,10,22,07,40,10.30
2007,10,22,07,41,10.30
2007,10,22,07,42,10.30
2007,10,22,07,43,10.30
2007,10,22,07,44,10.30
2007,10,22,07,45,10.30
2007,10,22,07,46,10.30
2007,10,22,07,47,10.30
2007,10,22,07,48,10.30
2007,10,22,07,49,10.30
2007,10,22,07,50,10.30
2007,10,22,07,51,10.30
2007,10,22,07,52,10.30
2007,10,22,07,53,10.30
2007,10,22,07,54,10.30
2007,10,22,07,55,10.30
2007,10,22,07,56,10.30
2007,10,22,07,57,10.30
2007,10,22,07,58,10.30
2007,10,22,07,59,10.30
2007,10,22,08,00,10.30
2007,10,22,08,01,10.40
2007,10,22,08,02,10.40
2007,10,22,08,03,10.40
2007,10,22,08,04,10.40
2007,10,22,08,05,10.40
2007,10,22,08,06,10.40
2007,10,22,08,07,10.40
2007,10,22,08,08,10.40
2007,10,22,08,09,10.40
2007,10,22,08,10,10.40
2007,10,22,08,11,10.40
2007,10,22,08,12,10.40
2007,10,22,08,13,10.40
2007,10,22,08,14,10.40
2007,10,22,08,15,10.40
2007,10,22,08,16,10.40
2007,10,22,08,17,10.40
2007,10,22,08,18,10.40
2007,10,22,08,19,10.40
2007,10,22,08,20,10.40
2007,10,22,08,21,10.40
2007,10,22,08,22,10.40
2007,10,22,08,23,10.40
2007,10,22,08,24,10.40
2007,10,22,08,25,10.50
2007,10,22,08,26,10.60
2007,10,22,08,27,10.60
2007,10,22,08,28,10.60
2007,10,22,08,29,10.60
2007,10,22,08,30,10.60
2007,10,22,08,31,10.60
2007,10,22,08,32,10.60
2007,10,22,08,33,10.60
2007,10,22,08,34,10.60
2007,10,22,08,35,10.60
2007,10,22,08,36,10.60
2007,10,22,08,37,10.60
2007,10,22,08,38,10.60
2007,10,22,08,39,10.60
2007,10,22,08,40,10.60
2007,10,22,08,41,10.60
2007,10,22,08,42,10.60
2007,10,22,08,43,10.60
2007,10,22,08,44,10.60
2007,10,22,08,45,10.60
2007,10,22,08,46,10.60
2007,10,22,08,47,10.60
2007,10,22,08,48,10.60
2007,10,22,08,49,10.60
2007,10,22,08,50,10.60
2007,10,22,08,51,10.60
2007,10,22,08,52,10.60
2007,10,22,08,53,10.60
2007,10,22,08,54,10.60
2007,10,22,08,55,10.60
2007,10,22,08,56,10.60
2007,10,22,08,57,10.60
2007,10,22,08,58,10.60
2007,10,22,08,59,10.60
2007,10,22,09,00,10.60
2007,10,22,09,01,10.60
2007,10,22,09,02,10.60
2007,10,22,09,03,10.70
2007,10,22,09,04,10.70
2007,10,22,09,05,10.70
2007,10,22,09,06,10.70
2007,10,22,09,07,10.80
2007,10,22,09,08,10.80
2007,10,22,09,09,10.80
2007,10,22,09,10,10.80
2007,10,22,09,11,10.80
2007,10,22,09,12,10.80
2007,10,22,09,13,10.80
2007,10,22,09,14,10.80
2007,10,22,09,15,10.80
2007,10,22,09,16,10.80
2007,10,22,09,17,10.80
2007,10,22,09,18,10.80
2007,10,22,09,19,10.80
2007,10,22,09,20,10.90
2007,10,22,09,21,10.90
2007,10,22,09,22,10.90
2007,10,22,09,23,10.90
2007,10,22,09,24,10.90
2007,10,22,09,25,10.90
2007,10,22,09,26,10.90
2007,10,22,09,27,10.90
2007,10,22,09,28,10.90
2007,10,22,09,29,11.10
2007,10,22,09,30,11.10
2007,10,22,09,31,11.10
2007,10,22,09,32,11.10
2007,10,22,09,33,11.10
2007,10,22,09,34,11.10
2007,10,22,09,35,11.20
2007,10,22,09,36,11.20
2007,10,22,09,37,11.20
2007,10,22,09,38,11.30
2007,10,22,09,39,11.30
2007,10,22,09,40,11.30
2007,10,22,09,41,11.40
2007,10,22,09,42,11.40
2007,10,22,09,43,11.40
2007,10,22,09,44,11.40
2007,10,22,09,45,11.50
2007,10,22,09,46,11.60
2007,10,22,09,47,11.60
2007,10,22,09,48,11.70
2007,10,22,09,49,11.70
2007,10,22,09,50,11.70
2007,10,22,09,51,11.70
2007,10,22,09,52,11.80
2007,10,22,09,53,11.80
2007,10,22,09,54,11.80
2007,10,22,09,55,11.90
2007,10,22,09,56,12.00
2007,10,22,09,57,12.00
2007,10,22,09,58,12.10
2007,10,22,09,59,12.10
2007,10,22,10,00,12.20
2007,10,22,10,01,12.30
2007,10,22,10,02,12.30
2007,10,22,10,03,12.30
2007,10,22,10,04,12.30
2007,10,22,10,05,12.30
2007,10,22,10,06,12.40
2007,10,22,10,07,12.50
2007,10,22,10,08,12.50
2007,10,22,10,09,12.60
2007,10,22,10,10,12.60
2007,10,22,10,11,12.70
2007,10,22,10,12,12.70
2007,10,22,10,13,12.80
2007,10,22,10,14,12.80
2007,10,22,10,15,12.80
2007,10,22,10,16,12.80
2007,10,22,10,17,12.80
2007,10,22,10,18,12.80
2007,10,22,10,19,12.80
2007,10,22,10,20,12.80
2007,10,22,10,21,12.80
2007,10,22,10,22,12.80
2007,10,22,10,23,12.80
2007,10,22,10,24,12.80
2007,10,22,10,25,12.80
2007,10,22,10,26,12.90
2007,10,22,10,27,12.90
2007,10,22,10,28,13.00
2007,10,22,10,29,13.00
2007,10,22,10,30,13.10
2007,10,22,10,31,13.10
2007,10,22,10,32,13.20
2007,10,22,10,33,13.20
2007,10,22,10,34,13.20
2007,10,22,10,35,13.20
2007,10,22,10,36,13.20
2007,10,22,10,37,13.20
2007,10,22,10,38,13.20
2007,10,22,10,39,13.10
2007,10,22,10,40,13.10
2007,10,22,10,41,13.00
2007,10,22,10,42,13.00
2007,10,22,10,43,13.00
2007,10,22,10,44,12.90
2007,10,22,10,45,12.90
2007,10,22,10,46,12.90
2007,10,22,10,47,12.90
2007,10,22,10,48,12.90
2007,10,22,10,49,12.90
2007,10,22,10,50,12.90
2007,10,22,10,51,12.90
2007,10,22,10,52,12.80
2007,10,22,10,53,12.80
2007,10,22,10,54,12.90
2007,10,22,10,55,12.90
2007,10,22,10,56,12.90
2007,10,22,10,57,12.90
2007,10,22,10,58,12.90
2007,10,22,10,59,12.90
2007,10,22,11,00,13.00
2007,10,22,11,01,13.00
2007,10,22,11,02,13.10
2007,10,22,11,03,13.10
2007,10,22,11,04,13.20
2007,10,22,11,05,13.20
2007,10,22,11,06,13.20
2007,10,22,11,07,13.20
2007,10,22,11,08,13.10
2007,10,22,11,09,13.10
2007,10,22,11,10,13.10
2007,10,22,11,11,13.20
2007,10,22,11,12,13.20
2007,10,22,11,13,13.30
2007,10,22,11,14,13.30
2007,10,22,11,15,13.30
2007,10,22,11,16,13.30
2007,10,22,11,17,13.30
2007,10,22,11,18,13.30
2007,10,22,11,19,13.30
2007,10,22,11,20,13.20
2007,10,22,11,21,13.20
2007,10,22,11,22,13.10
2007,10,22,11,23,13.00
2007,10,22,11,24,13.00
2007,10,22,11,25,13.00
2007,10,22,11,26,13.00
2007,10,22,11,27,13.00
2007,10,22,11,28,13.00
2007,10,22,11,29,13.00
2007,10,22,11,30,13.00
2007,10,22,11,31,12.90
2007,10,22,11,32,13.00
2007,10,22,11,33,13.00
2007,10,22,11,34,13.00
2007,10,22,11,35,13.00
2007,10,22,11,36,13.00
2007,10,22,11,37,13.00
2007,10,22,11,38,13.00
2007,10,22,11,39,13.00
2007,10,22,11,40,13.10
2007,10,22,11,41,13.10
2007,10,22,11,42,13.20
2007,10,22,11,43,13.20
2007,10,22,11,44,13.20
2007,10,22,11,45,13.20
2007,10,22,11,46,13.20
2007,10,22,11,47,13.20
2007,10,22,11,48,13.20
2007,10,22,11,49,13.10
2007,10,22,11,50,13.10
2007,10,22,11,51,13.10
2007,10,22,11,52,13.10
2007,10,22,11,53,13.10
2007,10,22,11,54,13.00
2007,10,22,11,55,13.00
2007,10,22,11,56,13.00
2007,10,22,11,57,13.00
2007,10,22,11,58,13.00
2007,10,22,11,59,13.00
2007,10,22,12,00,13.00
2007,10,22,12,01,13.00
2007,10,22,12,02,13.00
2007,10,22,12,03,13.00
2007,10,22,12,04,13.00
2007,10,22,12,05,12.90
2007,10,22,12,06,12.80
2007,10,22,12,07,12.80
2007,10,22,12,08,12.80
2007,10,22,12,09,12.80
2007,10,22,12,10,12.80
2007,10,22,12,11,12.80
2007,10,22,12,12,12.80
2007,10,22,12,13,12.80
2007,10,22,12,14,12.80
2007,10,22,12,15,12.80
2007,10,22,12,16,12.80
2007,10,22,12,17,12.80
2007,10,22,12,18,12.80
2007,10,22,12,19,12.70
2007,10,22,12,20,12.60
2007,10,22,12,21,12.60
2007,10,22,12,22,12.50
2007,10,22,12,23,12.40
2007,10,22,12,24,12.40
2007,10,22,12,25,12.40
2007,10,22,12,26,12.40
2007,10,22,12,27,12.40
2007,10,22,12,28,12.40
2007,10,22,12,29,12.30
2007,10,22,12,30,12.30
2007,10,22,12,31,12.20
2007,10,22,12,32,12.20
2007,10,22,12,33,12.10
2007,10,22,12,34,12.10
2007,10,22,12,35,12.10
2007,10,22,12,36,12.20
2007,10,22,12,37,12.20
2007,10,22,12,38,12.30
2007,10,22,12,39,12.30
2007,10,22,12,40,12.30
2007,10,22,12,41,12.30
2007,10,22,12,42,12.30
2007,10,22,12,43,12.40
2007,10,22,12,44,12.40
2007,10,22,12,45,12.50
2007,10,22,12,46,12.50
2007,10,22,12,47,12.60
2007,10,22,12,48,12.70
2007,10,22,12,49,12.70
2007,10,22,12,50,12.70
2007,10,22,12,51,12.70
2007,10,22,12,52,12.70
2007,10,22,12,53,12.70
2007,10,22,12,54,12.70
2007,10,22,12,55,12.70
2007,10,22,12,56,12.60
2007,10,22,12,57,12.60
2007,10,22,12,58,12.60
2007,10,22,12,59,12.60
2007,10,22,13,00,12.60
2007,10,22,13,01,12.60
2007,10,22,13,02,12.60
2007,10,22,13,03,12.50
2007,10,22,13,04,12.50
2007,10,22,13,05,12.40
2007,10,22,13,06,12.40
2007,10,22,13,07,12.40
2007,10,22,13,08,12.50
2007,10,22,13,09,12.50
2007,10,22,13,10,12.50
2007,10,22,13,11,12.60
2007,10,22,13,12,12.70
2007,10,22,13,13,12.70
2007,10,22,13,14,12.70
2007,10,22,13,15,12.70
2007,10,22,13,16,12.70
2007,10,22,13,17,12.70
2007,10,22,13,18,12.70
2007,10,22,13,19,12.70
2007,10,22,13,20,12.70
2007,10,22,13,21,12.80
2007,10,22,13,22,12.80
2007,10,22,13,23,12.80
2007,10,22,13,24,12.80
2007,10,22,13,25,12.80
2007,10,22,13,26,12.80
2007,10,22,13,27,12.80
2007,10,22,13,28,12.80
2007,10,22,13,29,12.80
2007,10,22,13,30,12.80
2007,10,22,13,31,12.80
2007,10,22,13,32,12.80
2007,10,22,13,33,12.80
2007,10,22,13,34,12.90
2007,10,22,13,35,12.80
2007,10,22,13,36,12.80
2007,10,22,13,37,12.80
2007,10,22,13,38,12.80
2007,10,22,13,39,12.80
2007,10,22,13,40,12.80
2007,10,22,13,41,12.70
2007,10,22,13,42,12.70
2007,10,22,13,43,12.70
2007,10,22,13,44,12.80
2007,10,22,13,45,12.80
2007,10,22,13,46,12.90
2007,10,22,13,47,12.90
2007,10,22,13,48,13.00
2007,10,22,13,49,13.00
2007,10,22,13,50,13.10
2007,10,22,13,51,13.10
2007,10,22,13,52,13.20
2007,10,22,13,53,13.20
2007,10,22,13,54,13.30
2007,10,22,13,55,13.30
2007,10,22,13,56,13.40
2007,10,22,13,57,13.40
2007,10,22,13,58,13.40
2007,10,22,13,59,13.40
2007,10,22,14,00,13.50
2007,10,22,14,01,13.60
2007,10,22,14,02,13.70
2007,10,22,14,03,13.70
2007,10,22,14,04,13.70
2007,10,22,14,05,13.70
2007,10,22,14,06,13.70
2007,10,22,14,07,13.70
2007,10,22,14,08,13.80
2007,10,22,14,09,13.80
2007,10,22,14,10,13.80
2007,10,22,14,11,13.70
2007,10,22,14,12,13.70
2007,10,22,14,13,13.70
2007,10,22,14,14,13.70
2007,10,22,14,15,13.70
2007,10,22,14,16,13.80
2007,10,22,14,17,13.90
2007,10,22,14,18,13.90
2007,10,22,14,19,14.00
2007,10,22,14,20,14.00
2007,10,22,14,21,14.00
2007,10,22,14,22,14.00
2007,10,22,14,23,14.00
2007,10,22,14,24,14.00
2007,10,22,14,25,14.00
2007,10,22,14,26,14.00
2007,10,22,14,27,14.00
2007,10,22,14,28,14.00
2007,10,22,14,29,13.90
2007,10,22,14,30,13.90
2007,10,22,14,31,13.90
2007,10,22,14,32,13.90
2007,10,22,14,33,14.00
2007,10,22,14,34,14.10
2007,10,22,14,35,14.00
2007,10,22,14,36,14.00
2007,10,22,14,37,13.90
2007,10,22,14,38,13.80
2007,10,22,14,39,13.70
2007,10,22,14,40,13.70
2007,10,22,14,41,13.70
2007,10,22,14,42,13.70
2007,10,22,14,43,13.80
2007,10,22,14,44,13.90
2007,10,22,14,45,13.90
2007,10,22,14,46,13.90
2007,10,22,14,47,13.90
2007,10,22,14,48,13.90
2007,10,22,14,49,13.90
2007,10,22,14,50,13.90
2007,10,22,14,51,13.90
2007,10,22,14,52,13.90
2007,10,22,14,53,13.90
2007,10,22,14,54,13.90
2007,10,22,15,10,14.10
2007,10,22,15,11,14.10
2007,10,22,15,12,14.20
2007,10,22,15,13,14.10
2007,10,22,15,14,14.10
2007,10,22,15,15,14.00
2007,10,22,15,16,14.00
2007,10,22,15,17,13.90
2007,10,22,15,18,13.90
2007,10,22,15,19,13.90
2007,10,22,15,20,13.90
2007,10,22,15,21,13.90
2007,10,22,15,22,13.90
2007,10,22,15,23,14.00
2007,10,22,15,24,14.00
2007,10,22,15,25,14.10
2007,10,22,15,26,14.10
2007,10,22,15,27,14.10
2007,10,22,15,28,14.10
2007,10,22,15,29,14.10
2007,10,22,15,30,14.20
2007,10,22,15,31,14.20
2007,10,22,15,32,14.20
2007,10,22,15,33,14.30
2007,10,22,15,34,14.30
2007,10,22,15,35,14.40
2007,10,22,15,36,14.40
2007,10,22,15,37,14.50
2007,10,22,15,38,14.50
2007,10,22,15,39,14.50
2007,10,22,15,40,14.50
2007,10,22,15,41,14.50
2007,10,22,15,42,14.50
2007,10,22,15,43,14.50
2007,10,22,15,44,14.50
2007,10,22,15,45,14.60
2007,10,22,15,46,14.60
2007,10,22,15,47,14.60
2007,10,22,15,48,14.70
2007,10,22,15,49,14.70
2007,10,22,15,50,14.70
2007,10,22,15,51,14.70
2007,10,22,15,52,14.60
2007,10,22,15,53,14.60
2007,10,22,15,54,14.50
2007,10,22,15,55,14.50
2007,10,22,15,56,14.30
2007,10,22,15,57,14.30
2007,10,22,15,58,14.20
2007,10,22,15,59,14.00
2007,10,22,16,00,14.00
2007,10,22,16,01,13.90
2007,10,22,16,02,13.90
2007,10,22,16,03,14.00
2007,10,22,16,04,14.00
2007,10,22,16,05,14.00
2007,10,22,16,06,14.00
2007,10,22,16,07,13.90
2007,10,22,16,08,13.90
2007,10,22,16,09,14.00
2007,10,22,16,10,14.00
2007,10,22,16,11,14.00
2007,10,22,16,12,14.10
2007,10,22,16,13,14.20
2007,10,22,16,14,14.20
2007,10,22,16,15,14.30
2007,10,22,16,16,14.40
2007,10,22,16,17,14.50
2007,10,22,16,18,14.60
2007,10,22,16,19,14.60
2007,10,22,16,20,14.70
2007,10,22,16,21,14.70
2007,10,22,16,22,14.80
2007,10,22,16,23,14.80
2007,10,22,16,24,14.80
2007,10,22,16,25,14.80
2007,10,22,16,26,14.80
2007,10,22,16,27,14.80
2007,10,22,16,28,14.80
2007,10,22,16,29,14.80
2007,10,22,16,30,14.80
2007,10,22,16,31,14.80
2007,10,22,16,32,14.80
2007,10,22,16,33,14.80
2007,10,22,16,34,14.90
2007,10,22,16,35,14.90
2007,10,22,16,36,14.90
2007,10,22,16,37,14.90
2007,10,22,16,38,14.80
2007,10,22,16,39,14.70
2007,10,22,16,40,14.60
2007,10,22,16,41,14.50
2007,10,22,16,42,14.40
2007,10,22,16,43,14.30
2007,10,22,16,44,14.30
2007,10,22,16,45,14.30
2007,10,22,16,46,14.30
2007,10,22,16,47,14.30
2007,10,22,16,48,14.40
2007,10,22,16,49,14.30
2007,10,22,16,50,14.30
2007,10,22,16,51,14.40
2007,10,22,16,52,14.40
2007,10,22,16,53,14.50
2007,10,22,16,54,14.50
2007,10,22,16,55,14.50
2007,10,22,16,56,14.50
2007,10,22,16,57,14.50
2007,10,22,16,58,14.50
2007,10,22,16,59,14.40
2007,10,22,17,00,14.30
2007,10,22,17,01,14.30
2007,10,22,17,02,14.20
2007,10,22,17,03,14.20
2007,10,22,17,04,14.20
2007,10,22,17,05,14.20
2007,10,22,17,06,14.10
2007,10,22,17,07,14.10
2007,10,22,17,08,14.10
2007,10,22,17,09,14.10
2007,10,22,17,10,14.10
2007,10,22,17,11,14.00
2007,10,22,17,12,14.00
2007,10,22,17,13,14.00
2007,10,22,17,14,14.00
2007,10,22,17,15,14.00
2007,10,22,17,16,13.90
2007,10,22,17,17,13.80
2007,10,22,17,18,13.80
2007,10,22,17,19,13.80
2007,10,22,17,20,13.70
2007,10,22,17,21,13.70
2007,10,22,17,22,13.60
2007,10,22,17,23,13.60
2007,10,22,17,24,13.60
2007,10,22,17,25,13.50
2007,10,22,17,26,13.40
2007,10,22,17,27,13.30
2007,10,22,17,28,13.30
2007,10,22,17,29,13.30
2007,10,22,17,30,13.30
2007,10,22,17,31,13.30
2007,10,22,17,32,13.30
2007,10,22,17,33,13.30
2007,10,22,17,34,13.30
2007,10,22,17,35,13.30
2007,10,22,17,36,13.30
2007,10,22,17,37,13.30
2007,10,22,17,38,13.30
2007,10,22,17,39,13.30
2007,10,22,17,40,13.30
2007,10,22,17,41,13.30
2007,10,22,17,42,13.30
2007,10,22,17,43,13.30
2007,10,22,17,44,13.30
2007,10,22,17,45,13.20
2007,10,22,17,46,13.20
2007,10,22,17,47,13.20
2007,10,22,17,48,13.20
2007,10,22,17,49,13.20
2007,10,22,17,50,13.20
2007,10,22,17,51,13.20
2007,10,22,17,52,13.20
2007,10,22,17,53,13.20
2007,10,22,17,54,13.30
2007,10,22,17,55,13.30
2007,10,22,17,56,13.30
2007,10,22,17,57,13.30
2007,10,22,17,58,13.30
2007,10,22,17,59,13.30
2007,10,22,18,00,13.30
2007,10,22,18,01,13.30
2007,10,22,18,02,13.30
2007,10,22,18,03,13.30
2007,10,22,18,04,13.30
2007,10,22,18,05,13.30
2007,10,22,18,06,13.30
2007,10,22,18,07,13.30
2007,10,22,18,08,13.20
2007,10,22,18,09,13.20
2007,10,22,18,10,13.30
2007,10,22,18,11,13.30
2007,10,22,18,12,13.30